Regional Weather Roundup
Issued by NWS Burlington, VT

Home | Current Version | Previous Version | Text Only | Print | Product List | Glossary On
Versions: 1 2 3 4 5 6 7 8 9 10 11 12 13 14 15 16 17 18 19 20 21 22 23 24 25 26 27 28 29 30 31 32 33 34 35 36 37 38 39 40 41 42 43 44 45 46 47 48 49 50
000
ASUS41 KBTV 270210
RWRBTV
VERMONT REGIONAL WEATHER ROUNDUP
NATIONAL WEATHER SERVICE BURLINGTON VT
1000 PM EDT THU MAR 26 2015

NOTE: "FAIR" INDICATES FEW OR NO CLOUDS BELOW 12,000 FEET WITH NO
SIGNIFICANT WEATHER AND/OR OBSTRUCTIONS TO VISIBILITY.

* THESE REPORTS ARE NOT UNDER NWS QUALITY CONTROL AND/OR DO NOT
  REPORT WEATHER SUCH AS PRECIPITATION AND FOG.

VTZ001>019-270300-
_____VERMONT_____


CITY           SKY/WX    TMP DP  RH WIND       PRES   REMARKS
BURLINGTON     LGT RAIN  36  33  89 NE3       29.75S
MONTPELIER     LGT RAIN  34  33  96 CALM      29.74F FOG
MORRISVILLE    MIX PCPN  35  32  88 NE6       29.74S
ST. JOHNSBURY*   N/A     36  34  92 MISG      29.71S
LYNDONVILLE*   LGT SNOW  33  32  94 CALM      29.72S
MIDDLEBURY*    LGT RAIN  34  34 100 CALM      29.73F
RUTLAND*       CLOUDY    34  32  93 CALM      29.73S
SPRINGFIELD    LGT RAIN  36  36 100 CALM      29.72S FOG
HIGHGATE*      MIX PCPN  32  32  99 CALM      29.76F
NEWPORT*       LGT SNOW  32  32  98 N3        29.72F
BENNINGTON     LGT RAIN  37  35  92 W3        29.73R
SUTTON*          N/A     32 N/A N/A MISG        N/A

_____LAKE CHAMPLAIN_____


CITY           SKY/WX    TMP DP  RH WIND       PRES   REMARKS

$$

NYZ007-026>031-035-052-083-270300-
_____NORTHERN NEW YORK_____


CITY           SKY/WX    TMP DP  RH WIND       PRES   REMARKS
PLATTSBURGH    LGT RAIN  34  34 100 CALM      29.75S
SARANAC LAKE   LGT SNOW  33  32  96 CALM      29.69S FOG
MASSENA        CLOUDY    34  34 100 SW7       29.78S
OGDENSBURG*    CLOUDY    34  34 100 SW5       29.77S FOG
POTSDAM*       CLOUDY    34  34 100 SW5       29.76S
WATERTOWN      LGT SNOW  34  32  92 SW5       29.80S FOG
FT DRUM        LGT SNOW  32  32 100 W5        29.76S FOG
ALBANY         LGT RAIN  38  36  92 VRB3      29.76S FOG
GLENS FALLS    CLOUDY    36  34  92 CALM      29.74S FOG

$$
NHZ002-005-011-270300-
_____NEW HAMPSHIRE_____


CITY           SKY/WX    TMP DP  RH WIND       PRES   REMARKS
LEBANON        MIX PCPN  37  36  96 NW3       29.71S
KEENE          CLOUDY    39  39 100 NE5       29.69S
MT WASHINGTON  SNOW      21  21 100 NW32        N/A  VSB 1/16WCI   2
PLYMOUTH       DRIZZLE   39  39 100 NW3       29.69F
WHITEFIELD     FLURRIES  35  33  92 CALM      29.71S

$$

_____REGIONAL QUEBEC LOCATIONS_____


CITY           SKY/WX    TMP DP  RH WIND       PRES   REMARKS
MONTREAL       CLOUDY    34  32  93 SW8       29.75S
QUEBEC CITY    CLOUDY    36  32  87 SW9       29.69F
SHERBROOKE     LGT SNOW  32  32 100 S5        29.71F

_____REGIONAL ONTARIO LOCATIONS_____


CITY           SKY/WX    TMP DP  RH WIND       PRES   REMARKS
OTTAWA         CLOUDY    34  32  93 S6        29.75S

______KEY______
VSB  - VISIBILITY IN MILES
WCI  - WIND CHILL INDEX
HX   - HEAT INDEX
$$
NNNN


USA.gov is the U.S. government's official web portal to all federal, state and local government web resources and services.